GEBDS EGCB-EGBB

Flight info

Callsign GEBDS
Flight time N/A
Altitude 2000
Route VFR
Aircraft DA42/L-SBDGRY/S

Departure

Time 2026-04-11 17:23
Airport Manchester Barton Aerodrome (EGCB)

Arrival

Time N/A
Airport Birmingham Airport (EGBB)
Time Latitude Longitude Altitude Speed Heading
2026-04-11 17:13 53.47132 -2.38621 72 ft 9 kts 84°
2026-04-11 17:13 53.47097 -2.38548 71 ft 10 kts 163°
2026-04-11 17:13 53.47049 -2.38470 74 ft 6 kts 126°
2026-04-11 17:14 53.47065 -2.38410 71 ft 10 kts 48°
2026-04-11 17:14 53.47112 -2.38365 73 ft 8 kts 321°
2026-04-11 17:14 53.47141 -2.38405 75 ft 0 kts 325°
2026-04-11 17:15 53.47142 -2.38405 75 ft 0 kts 324°
2026-04-11 17:20 53.47173 -2.38453 72 ft 8 kts 324°
2026-04-11 17:20 53.47214 -2.38512 78 ft 4 kts 290°
2026-04-11 17:20 53.47216 -2.38544 76 ft 1 kts 260°
2026-04-11 17:21 53.47216 -2.38546 76 ft 0 kts 256°
2026-04-11 17:22 53.47204 -2.38708 75 ft 36 kts 262°
2026-04-11 17:22 53.47159 -2.39362 67 ft 74 kts 263°
2026-04-11 17:22 53.47100 -2.40172 326 ft 69 kts 259°
2026-04-11 17:23 53.46853 -2.40895 517 ft 74 kts 213°
2026-04-11 17:23 53.46368 -2.40975 800 ft 72 kts 173°
2026-04-11 17:23 53.45975 -2.40409 1043 ft 81 kts 132°
2026-04-11 17:23 53.45793 -2.39367 1144 ft 97 kts 122°
2026-04-11 17:24 53.45643 -2.38247 1290 ft 105 kts 117°
2026-04-11 17:24 53.45508 -2.36975 1319 ft 115 kts 111°
2026-04-11 17:24 53.45456 -2.35611 1415 ft 116 kts 113°
2026-04-11 17:24 53.45330 -2.34267 1514 ft 117 kts 112°
2026-04-11 17:25 53.45139 -2.32937 1553 ft 115 kts 126°
2026-04-11 17:25 53.44756 -2.31814 1587 ft 111 kts 141°
2026-04-11 17:25 53.44237 -2.30869 1648 ft 106 kts 148°
2026-04-11 17:25 53.43645 -2.30191 1685 ft 103 kts 165°
2026-04-11 17:26 53.42979 -2.29682 1654 ft 105 kts 165°
2026-04-11 17:26 53.42307 -2.29091 1539 ft 113 kts 162°
2026-04-11 17:26 53.41622 -2.28520 1547 ft 109 kts 163°
2026-04-11 17:26 53.40959 -2.27946 1609 ft 103 kts 162°
2026-04-11 17:27 53.40306 -2.27450 1569 ft 103 kts 168°
2026-04-11 17:27 53.39655 -2.27027 1605 ft 100 kts 169°
2026-04-11 17:27 53.38999 -2.26770 1617 ft 94 kts 184°
2026-04-11 17:27 53.38422 -2.27130 1637 ft 91 kts 217°
2026-04-11 17:28 53.38029 -2.28056 1516 ft 100 kts 231°
2026-04-11 17:28 53.37657 -2.29009 1517 ft 95 kts 230°
2026-04-11 17:28 53.37691 -2.30160 1588 ft 116 kts 286°
2026-04-11 17:28 53.38382 -2.31070 1570 ft 138 kts 327°
2026-04-11 17:29 53.39358 -2.31234 1610 ft 147 kts
2026-04-11 17:29 53.40267 -2.30435 1592 ft 146 kts 53°
2026-04-11 17:29 53.40564 -2.28955 1563 ft 127 kts 111°
2026-04-11 17:29 53.40235 -2.27742 1608 ft 107 kts 147°
2026-04-11 17:30 53.39624 -2.27220 1608 ft 95 kts 180°
2026-04-11 17:30 53.39006 -2.27470 1613 ft 92 kts 204°
2026-04-11 17:30 53.38432 -2.27959 1575 ft 94 kts 208°
2026-04-11 17:30 53.37934 -2.28649 1563 ft 94 kts 227°
2026-04-11 17:31 53.37815 -2.29756 1593 ft 110 kts 269°
2026-04-11 17:31 53.38323 -2.30881 1596 ft 134 kts 315°
2026-04-11 17:31 53.39280 -2.31225 1610 ft 149 kts 360°
2026-04-11 17:31 53.40261 -2.30690 1612 ft 151 kts 34°
2026-04-11 17:32 53.40879 -2.29398 1639 ft 136 kts 85°
2026-04-11 17:32 53.40776 -2.27997 1646 ft 113 kts 137°
2026-04-11 17:32 53.40169 -2.27465 1624 ft 99 kts 181°
2026-04-11 17:32 53.39481 -2.27490 1504 ft 103 kts 189°
2026-04-11 17:33 53.38782 -2.27698 1492 ft 96 kts 195°
2026-04-11 17:33 53.38158 -2.28108 1398 ft 98 kts 206°
2026-04-11 17:33 53.37768 -2.29027 1413 ft 103 kts 250°
2026-04-11 17:33 53.37971 -2.30256 1430 ft 123 kts 293°
2026-04-11 17:34 53.38735 -2.31073 1444 ft 141 kts 334°
2026-04-11 17:34 53.39753 -2.31109 1470 ft 147 kts 11°
2026-04-11 17:34 53.40641 -2.30297 1429 ft 150 kts 46°
2026-04-11 17:34 53.41132 -2.28900 1452 ft 135 kts 91°
2026-04-11 17:35 53.40841 -2.27601 1424 ft 111 kts 150°
2026-04-11 17:35 53.40160 -2.27449 1371 ft 100 kts 193°
2026-04-11 17:35 53.39493 -2.27664 1388 ft 96 kts 193°
2026-04-11 17:35 53.38821 -2.27902 1306 ft 99 kts 196°
2026-04-11 17:36 53.38163 -2.28219 1335 ft 92 kts 199°
2026-04-11 17:36 53.37753 -2.28921 1489 ft 91 kts 249°
2026-04-11 17:36 53.38082 -2.30031 1440 ft 128 kts 306°
2026-04-11 17:36 53.38907 -2.30695 1546 ft 132 kts 331°
2026-04-11 17:37 53.39868 -2.30845 1523 ft 145 kts
2026-04-11 17:37 53.40709 -2.29952 1522 ft 144 kts 59°
2026-04-11 17:37 53.40907 -2.28500 1522 ft 122 kts 120°
2026-04-11 17:37 53.40370 -2.27728 1535 ft 98 kts 179°
2026-04-11 17:38 53.39694 -2.27900 1458 ft 100 kts 194°
2026-04-11 17:38 53.39034 -2.28056 1460 ft 97 kts 190°
2026-04-11 17:38 53.38363 -2.28164 1401 ft 97 kts 190°
2026-04-11 17:38 53.37709 -2.28378 1362 ft 94 kts 211°
2026-04-11 17:39 53.37468 -2.29388 1408 ft 104 kts 262°
2026-04-11 17:39 53.37903 -2.30506 1366 ft 133 kts 315°
2026-04-11 17:39 53.38825 -2.30903 1381 ft 145 kts 353°
2026-04-11 17:39 53.39796 -2.30488 1405 ft 144 kts 33°
2026-04-11 17:40 53.40266 -2.29713 1430 ft 137 kts 66°
2026-04-11 17:40 53.40575 -2.28270 1404 ft 133 kts 91°
2026-04-11 17:40 53.40543 -2.26792 1388 ft 122 kts 116°
2026-04-11 17:40 53.40309 -2.25426 1349 ft 120 kts 120°
2026-04-11 17:41 53.39986 -2.24184 1385 ft 113 kts 129°
2026-04-11 17:41 53.39507 -2.23208 1339 ft 108 kts 150°
2026-04-11 17:41 53.38868 -2.22567 1204 ft 102 kts 174°
2026-04-11 17:41 53.38201 -2.22638 1071 ft 98 kts 200°
2026-04-11 17:42 53.37591 -2.23226 827 ft 105 kts 214°
2026-04-11 17:42 53.37027 -2.24067 641 ft 115 kts 225°
2026-04-11 17:42 53.36516 -2.25146 426 ft 120 kts 226°
2026-04-11 17:43 53.35509 -2.27217 269 ft 107 kts 226°
2026-04-11 17:43 53.35055 -2.28157 249 ft 102 kts 228°
2026-04-11 17:43 53.34652 -2.28965 580 ft 79 kts 226°
2026-04-11 17:43 53.34145 -2.29307 705 ft 90 kts 174°
2026-04-11 17:44 53.33616 -2.28631 826 ft 101 kts 131°
2026-04-11 17:44 53.33253 -2.27631 1016 ft 100 kts 133°
2026-04-11 17:44 53.32922 -2.26649 1194 ft 99 kts 133°
2026-04-11 17:44 53.32530 -2.25678 1323 ft 100 kts 140°
2026-04-11 17:45 53.32153 -2.24717 1496 ft 99 kts 138°
2026-04-11 17:45 53.31736 -2.23779 1571 ft 102 kts 143°
2026-04-11 17:45 53.31228 -2.22940 1612 ft 102 kts 152°
2026-04-11 17:45 53.30695 -2.22104 1662 ft 107 kts 147°
2026-04-11 17:46 53.30180 -2.21166 1612 ft 115 kts 143°
2026-04-11 17:46 53.29695 -2.20123 1572 ft 119 kts 137°
2026-04-11 17:46 53.29253 -2.18958 1525 ft 117 kts 137°
2026-04-11 17:46 53.28757 -2.17912 1542 ft 111 kts 145°
2026-04-11 17:47 53.28227 -2.17042 1570 ft 108 kts 149°
2026-04-11 17:47 53.27670 -2.16250 1593 ft 102 kts 154°
2026-04-11 17:47 53.27130 -2.15506 1623 ft 99 kts 155°
2026-04-11 17:47 53.26567 -2.14822 1605 ft 98 kts 165°
2026-04-11 17:48 53.25346 -2.13872 1662 ft 95 kts 170°
2026-04-11 17:48 53.24711 -2.13586 1673 ft 96 kts 176°
2026-04-11 17:48 53.24058 -2.13423 1723 ft 92 kts 187°
2026-04-11 17:49 53.22824 -2.13740 1804 ft 88 kts 194°
2026-04-11 17:49 53.21587 -2.14162 1782 ft 91 kts 192°
2026-04-11 17:50 53.20959 -2.14276 1822 ft 90 kts 189°
2026-04-11 17:50 53.20329 -2.14351 1824 ft 92 kts 189°
2026-04-11 17:50 53.19700 -2.14476 1859 ft 90 kts 191°
2026-04-11 17:50 53.19065 -2.14609 1880 ft 92 kts 189°
2026-04-11 17:51 53.18434 -2.14758 1909 ft 92 kts 195°
2026-04-11 17:51 53.17219 -2.15264 1895 ft 88 kts 197°
2026-04-11 17:51 53.16621 -2.15505 1902 ft 90 kts 196°
2026-04-11 17:52 53.15994 -2.15681 1959 ft 91 kts 197°
2026-04-11 17:52 53.15380 -2.15886 1944 ft 91 kts 193°
2026-04-11 17:52 53.14764 -2.16066 2024 ft 86 kts 195°
2026-04-11 17:52 53.14167 -2.16184 2079 ft 91 kts 186°
2026-04-11 17:53 53.13534 -2.16254 2114 ft 90 kts 194°
2026-04-11 17:53 53.12905 -2.16463 2070 ft 97 kts 196°
2026-04-11 17:53 53.12238 -2.16733 1996 ft 97 kts 198°
2026-04-11 17:53 53.11607 -2.17094 1981 ft 95 kts 199°
2026-04-11 17:54 53.10951 -2.17394 1863 ft 101 kts 194°
2026-04-11 17:54 53.10259 -2.17520 1874 ft 99 kts 185°
2026-04-11 17:54 53.09578 -2.17655 1866 ft 97 kts 193°
2026-04-11 17:54 53.08921 -2.17916 1819 ft 99 kts 197°
2026-04-11 17:55 53.08259 -2.18216 1815 ft 97 kts 196°
2026-04-11 17:55 53.07614 -2.18490 1841 ft 93 kts 199°
2026-04-11 17:55 53.06989 -2.18776 1769 ft 94 kts 196°
2026-04-11 17:55 53.06356 -2.19084 1700 ft 94 kts 202°
2026-04-11 17:56 53.05762 -2.19521 1745 ft 93 kts 203°
2026-04-11 17:56 53.05141 -2.19885 1709 ft 98 kts 199°
2026-04-11 17:56 53.04484 -2.20181 1682 ft 99 kts 195°
2026-04-11 17:56 53.03818 -2.20420 1721 ft 98 kts 191°
2026-04-11 17:57 53.03122 -2.20508 1700 ft 99 kts 185°
2026-04-11 17:57 53.02453 -2.20454 1779 ft 94 kts 184°
2026-04-11 17:57 53.01786 -2.20550 1698 ft 99 kts 189°
2026-04-11 17:57 53.01121 -2.20589 1815 ft 91 kts 185°
2026-04-11 17:58 53.00491 -2.20568 1918 ft 91 kts 187°
2026-04-11 17:58 52.99857 -2.20599 2016 ft 92 kts 186°
2026-04-11 17:58 52.99229 -2.20356 2112 ft 99 kts 164°
2026-04-11 17:58 52.98574 -2.19804 1983 ft 107 kts 164°
2026-04-11 17:59 52.97946 -2.19175 1990 ft 104 kts 162°
2026-04-11 17:59 52.97303 -2.18608 1878 ft 107 kts 166°
2026-04-11 17:59 52.96665 -2.18227 2024 ft 88 kts 175°
2026-04-11 17:59 52.96041 -2.17941 1879 ft 98 kts 176°
2026-04-11 18:00 52.95378 -2.17718 1871 ft 94 kts 179°
2026-04-11 18:00 52.94732 -2.17564 1847 ft 95 kts 181°
2026-04-11 18:00 52.94077 -2.17466 1876 ft 91 kts 179°
2026-04-11 18:00 52.93453 -2.17179 1889 ft 96 kts 171°
2026-04-11 18:01 52.92814 -2.16761 1889 ft 99 kts 167°
2026-04-11 18:01 52.92196 -2.16371 1925 ft 96 kts 173°
2026-04-11 18:01 52.91556 -2.15939 1960 ft 98 kts 166°
2026-04-11 18:01 52.90943 -2.15477 1957 ft 101 kts 168°
2026-04-11 18:02 52.90304 -2.15054 2017 ft 98 kts 168°
2026-04-11 18:02 52.89664 -2.14731 2037 ft 92 kts 179°
2026-04-11 18:02 52.89033 -2.14603 2007 ft 95 kts 181°
2026-04-11 18:02 52.88414 -2.14404 1974 ft 96 kts 177°
2026-04-11 18:03 52.87775 -2.14053 1962 ft 98 kts 169°
2026-04-11 18:03 52.87161 -2.13632 1991 ft 94 kts 169°
2026-04-11 18:03 52.86548 -2.13221 1964 ft 92 kts 174°
2026-04-11 18:03 52.85924 -2.12958 1773 ft 98 kts 178°
2026-04-11 18:04 52.85307 -2.12834 1402 ft 83 kts 187°
2026-04-11 18:04 52.84926 -2.13164 1297 ft 66 kts 245°
2026-04-11 18:04 52.84911 -2.13912 1112 ft 57 kts 232°
2026-04-11 18:04 52.84701 -2.14459 934 ft 57 kts 237°
2026-04-11 18:05 52.84475 -2.14982 811 ft 57 kts 229°
2026-04-11 18:05 52.84336 -2.15602 783 ft 57 kts 237°
2026-04-11 18:05 52.84141 -2.16161 751 ft 56 kts 223°
2026-04-11 18:05 52.83911 -2.16695 743 ft 59 kts 230°
2026-04-11 18:06 52.83760 -2.17351 653 ft 62 kts 233°
2026-04-11 18:06 52.83581 -2.17984 582 ft 61 kts 230°
2026-04-11 18:06 52.83363 -2.18579 514 ft 60 kts 227°
2026-04-11 18:06 52.83179 -2.19179 448 ft 57 kts 228°
2026-04-11 18:07 52.82965 -2.19725 314 ft 56 kts 229°
2026-04-11 18:07 52.82819 -2.20120 305 ft 29 kts 240°
2026-04-11 18:07 52.82717 -2.20418 308 ft 30 kts 241°
2026-04-11 18:07 52.82640 -2.20669 314 ft 12 kts 270°
2026-04-11 18:08 52.82661 -2.20751 315 ft 11 kts 307°
2026-04-11 18:08 52.82730 -2.20833 316 ft 9 kts 320°
2026-04-11 18:08 52.82736 -2.20873 317 ft 1 kts 175°
2026-04-11 18:08 52.82733 -2.20871 317 ft 0 kts 141°